EW5586 Weather Reports


time (UTC)temp
C
wind
direction
speed
KPH
gust
KPH
rain 1hr
cm
rain 24hr
cm
rain mn
cm
humidity
%
barometer
mb
20260906185258 23 182 0.0 0.0 0.00 0.00 0.00 59 1018.5
20260906184801 23 248 0.0 0.0 0.00 0.00 0.00 59 1018.5
20260906184259 23 198 0.0 0.0 0.00 0.00 0.00 62 1018.4
20260906183755 23 202 0.0 6.4 0.00 0.00 0.00 61 1018.4
20260906183253 23 194 0.0 6.4 0.00 0.00 0.00 60 1018.4
20260906182753 23 191 0.0 0.0 0.00 0.00 0.00 61 1018.4
20260906182252 23 269 0.0 1.6 0.00 0.00 0.00 64 1018.5
20260906181752 23 355 0.0 9.7 0.00 0.00 0.00 65 1018.5
20260906181250 23 190 1.6 9.7 0.00 0.00 0.00 62 1018.5
20260906180249 23 210 0.0 6.4 0.00 0.00 0.00 59 1018.7
20260906175745 23 121 0.0 1.6 0.00 0.00 0.00 61 1018.7
20260906175244 23 142 0.0 1.6 0.00 0.00 0.00 62 1018.8
20260906174236 23 187 0.0 6.4 0.00 0.00 0.00 64 1018.7
20260906173730 23 331 0.0 6.4 0.00 0.00 0.00 64 1018.8
20260906173223 23 167 0.0 4.8 0.00 0.00 0.00 63 1018.8
20260906172717 23 225 0.0 4.8 0.00 0.00 0.00 62 1018.8
20260906172210 23 327 0.0 4.8 0.00 0.00 0.00 66 1018.9
20260906171704 23 209 0.0 8.0 0.00 0.00 0.00 64 1018.8
20260906171158 23 335 1.6 8.0 0.00 0.00 0.00 64 1018.9
20260906170652 23 167 0.0 6.4 0.00 0.00 0.00 62 1018.8
20260906170154 23 225 0.0 6.4 0.00 0.00 0.00 63 1018.9
20260906165653 23 132 0.0 1.6 0.00 0.00 0.00 66 1018.9
20260906165153 23 318 0.0 4.8 0.00 0.00 0.00 67 1018.9
20260906164653 23 229 0.0 4.8 0.00 0.00 0.00 64 1019.0
20260906164152 23 169 0.0 0.0 0.00 0.00 0.00 65 1019.0
20260906163651 23 254 0.0 0.0 0.00 0.00 0.00 66 1019.0
20260906163148 23 285 0.0 3.2 0.00 0.00 0.00 67 1019.1
20260906162149 22 0 0.0 3.2 0.00 0.00 0.00 65 1019.3
20260906161649 22 38 0.0 0.0 0.00 0.00 0.00 68 1019.3
20260906160647 22 305 0.0 3.2 0.00 0.00 0.00 64 1019.2
20260906160146 23 256 0.0 3.2 0.00 0.00 0.00 68 1019.2
20260906155647 22 179 0.0 1.6 0.00 0.00 0.00 68 1019.2
20260906155146 22 0 0.0 1.6 0.00 0.00 0.00 68 1019.2
20260906154645 22 232 0.0 0.0 0.00 0.00 0.00 69 1019.2
20260906154144 22 248 0.0 0.0 0.00 0.00 0.00 68 1019.3
20260906153638 21 338 0.0 1.6 0.00 0.00 0.00 73 1019.2
20260906153132 21 314 0.0 1.6 0.00 0.00 0.00 71 1019.3
20260906152121 20 213 0.0 1.6 0.00 0.00 0.00 74 1019.5
20260906151614 20 281 0.0 4.8 0.00 0.00 0.00 74 1019.5
20260906151109 20 5 0.0 8.0 0.00 0.00 0.00 75 1019.5
20260906150602 20 12 0.0 8.0 0.00 0.00 0.00 75 1019.6
20260906150056 20 331 0.0 6.4 0.00 0.00 0.00 78 1019.6
20260906145550 19 5 1.6 6.4 0.00 0.00 0.00 76 1019.6
20260906145045 19 351 1.6 9.7 0.00 0.00 0.00 76 1019.5
20260906144538 19 51 1.6 14.5 0.00 0.00 0.00 75 1019.6
20260906144034 19 29 1.6 14.5 0.00 0.00 0.00 74 1019.6
20260906143527 19 59 0.0 11.3 0.00 0.00 0.00 77 1019.5
20260906143020 19 28 1.6 14.5 0.00 0.00 0.00 77 1019.5
20260906142009 18 338 1.6 9.7 0.00 0.00 0.00 80 1019.4
20260906141503 18 323 1.6 8.0 0.00 0.00 0.00 82 1019.4
20260906140956 18 337 0.0 8.0 0.00 0.00 0.00 83 1019.4
20260906140450 17 355 1.6 8.0 0.00 0.00 0.00 85 1019.3
20260906135945 17 43 1.6 9.7 0.00 0.00 0.00 85 1019.3
20260906135438 16 48 1.6 12.9 0.00 0.00 0.00 88 1019.3
20260906134427 15 331 1.6 8.0 0.00 0.00 0.00 90 1019.3
20260906133920 15 24 0.0 1.6 0.00 0.00 0.00 91 1019.4
20260906133414 15 346 0.0 3.2 0.00 0.00 0.00 91 1019.3
20260906132908 15 29 1.6 17.7 0.00 0.00 0.00 90 1019.3
20260906132402 15 10 1.6 17.7 0.00 0.00 0.00 91 1019.3
20260906131350 15 24 3.2 16.1 0.00 0.00 0.00 92 1019.1
20260906130844 15 19 1.6 16.1 0.00 0.00 0.00 92 1019.0
20260906130338 15 339 1.6 9.7 0.00 0.00 0.00 93 1019.1
20260906125832 14 351 1.6 9.7 0.00 0.00 0.00 93 1019.1
20260906125326 14 340 1.6 12.9 0.00 0.00 0.00 93 1019.1
20260906124821 14 33 3.2 12.9 0.00 0.00 0.00 93 1019.1
20260906124314 14 355 3.2 14.5 0.00 0.00 0.00 93 1019.1
20260906123808 14 0 1.6 14.5 0.00 0.00 0.00 94 1019.0
20260906123302 14 41 1.6 9.7 0.00 0.00 0.00 94 1019.0
20260906122756 13 323 3.2 16.1 0.00 0.00 0.00 94 1019.0
20260906120732 13 355 0.0 9.7 0.00 0.00 0.00 95 1018.9
20260906120226 13 324 1.6 12.9 0.00 0.00 0.00 95 1018.7
20260906115720 13 0 0.0 12.9 0.00 0.00 0.00 95 1018.6
20260906115214 13 39 1.6 14.5 0.00 0.00 0.00 95 1018.6
20260906114709 13 5 1.6 14.5 0.00 0.00 0.00 95 1018.6
20260906113656 13 18 1.6 12.9 0.00 0.00 0.00 95 1018.5
20260906113150 13 9 1.6 12.9 0.00 0.00 0.00 95 1018.5
20260906112645 13 347 0.0 9.7 0.00 0.00 0.00 95 1018.4
20260906112139 13 40 1.6 6.4 0.00 0.00 0.00 95 1018.4
20260906111637 -17 0.0 0.0 0.00 0.00 0.00 1018.3
20260906111115 -17 0.0 0.0 0.00 0.00 0.00 1018.3
20260906110608 -17 0.0 0.0 0.00 0.00 0.00 1018.2
20260906110019 -17 0.0 0.0 0.00 0.00 0.00 1018.2
20260906105510 -17 0.0 0.0 0.00 0.00 0.00 1018.1
20260906104328 -17 0.0 0.0 0.00 0.00 0.00 1017.9
20260906103812 -17 0.0 0.0 0.00 0.00 0.00 1017.8
20260906101526 -17 0.0 0.0 0.00 0.00 0.00 1017.5
20260906101025 -17 0.0 0.0 0.00 0.00 0.00 1017.5
20260906095916 -17 0.0 0.0 0.00 0.00 0.00 1017.6
20260906095326 -17 0.0 0.0 0.00 0.00 0.00 1017.5
20260906094824 -17 0.0 0.0 0.00 0.00 0.00 1017.4
20260906094324 -17 0.0 0.0 0.00 0.00 0.00 1017.3
20260906093818 -17 0.0 0.0 0.00 0.00 0.00 1017.3
20260906092721 -17 0.0 0.0 0.00 0.00 0.00 1017.2
20260906092212 -17 0.0 0.0 0.00 0.00 0.00 1017.2
20260906091622 -17 0.0 0.0 0.00 0.00 0.00 1017.1
20260906091119 -17 0.0 0.0 0.00 0.00 0.00 1017.1
20260906090530 -17 0.0 0.0 0.00 0.00 0.00 1017.0
20260906090031 -17 0.0 0.0 0.00 0.00 0.00 1016.9
20260906085524 -17 0.0 0.0 0.00 0.00 0.00 1016.9
20260906085024 -17 0.0 0.0 0.00 0.00 0.00 1016.9
20260906084524 -17 0.0 0.0 0.00 0.00 0.00 1016.9
20260906084014 -17 0.0 0.0 0.00 0.00 0.00 1016.8
20260906083427 -17 0.0 0.0 0.00 0.00 0.00 1016.7
20260906082407 -17 0.0 0.0 0.00 0.00 0.00 1016.5
20260906081316 -17 0.0 0.0 0.00 0.00 0.00 1016.3
20260906080815 -17 0.0 0.0 0.00 0.00 0.00 1016.3
20260906080217 15 355 1.6 9.7 0.00 0.00 0.00 90 1016.3
20260906075715 15 355 1.6 9.7 0.00 0.00 0.00 90 1016.3
20260906075154 15 355 1.6 11.3 0.00 0.00 0.00 90 1016.3
20260906074638 15 355 1.6 11.3 0.00 0.00 0.00 90 1016.4
20260906074132 15 11 1.6 12.9 0.00 0.00 0.00 90 1016.3
20260906073632 15 355 1.6 12.9 0.00 0.00 0.00 90 1016.3
20260906072127 15 348 1.6 11.3 0.00 0.00 0.00 90 1016.2
20260906070627 15 14 3.2 24.1 0.00 0.00 0.00 91 1016.1
20260906070128 15 332 3.2 14.5 0.00 0.00 0.00 91 1016.0
20260906065627 15 5 3.2 11.3 0.00 0.00 0.00 92 1015.9
20260906064626 15 37 4.8 14.5 0.00 0.00 0.00 92 1015.8
20260906064125 15 355 3.2 16.1 0.00 0.00 0.00 93 1015.8
20260906063625 15 348 4.8 19.3 0.00 0.00 0.00 93 1015.8
20260906063124 16 41 3.2 19.3 0.00 0.00 0.00 94 1015.8
20260906062622 16 350 1.6 14.5 0.00 0.00 0.00 94 1015.8
20260906062122 16 20 0.0 14.5 0.00 0.00 0.00 94 1015.8
20260906061122 16 44 1.6 8.0 0.00 0.00 0.00 94 1015.8
20260906060618 16 31 1.6 8.0 0.00 0.00 0.00 94 1015.8
20260906060118 16 44 0.0 8.0 0.00 0.00 0.00 94 1015.8
20260906055615 16 22 1.6 9.7 0.00 0.00 0.00 94 1015.7
20260906055114 16 16 1.6 9.7 0.00 0.00 0.00 94 1015.7
20260906054614 16 23 3.2 9.7 0.00 0.00 0.00 93 1015.7
20260906054113 16 31 1.6 9.7 0.00 0.00 0.00 93 1015.7
20260906053612 16 346 0.0 0.0 0.00 0.00 0.00 93 1015.7
20260906053112 16 11 0.0 0.0 0.00 0.00 0.00 93 1015.6
20260906052609 16 0 0.0 0.0 0.00 0.00 0.00 93 1015.7
20260906052106 16 355 0.0 0.0 0.00 0.00 0.00 93 1015.7
20260906051605 16 20 0.0 0.0 0.00 0.00 0.00 92 1015.6
20260906051059 16 9 0.0 0.0 0.00 0.00 0.00 92 1015.6
20260906050553 16 355 0.0 0.0 0.00 0.00 0.00 92 1015.6
20260906050048 17 10 0.0 0.0 0.00 0.00 0.00 92 1015.5
20260906045541 17 350 0.0 0.0 0.00 0.00 0.00 92 1015.5
20260906044530 17 355 0.0 0.0 0.00 0.00 0.00 92 1015.4
20260906044023 17 355 0.0 0.0 0.00 0.00 0.00 92 1015.5
20260906043517 17 5 0.0 0.0 0.00 0.00 0.00 92 1015.4
20260906042505 17 5 0.0 0.0 0.00 0.00 0.00 92 1015.3
20260906041959 17 345 0.0 0.0 0.00 0.00 0.00 91 1015.3
20260906041454 17 355 0.0 0.0 0.00 0.00 0.00 91 1015.3
20260906040947 17 349 0.0 0.0 0.00 0.00 0.00 91 1015.3
20260906040446 17 355 0.0 0.0 0.00 0.00 0.00 91 1015.3
20260906035945 17 355 0.0 3.2 0.00 0.00 0.00 91 1015.2
20260906035446 17 355 0.0 6.4 0.00 0.00 0.00 91 1015.3
20260906034944 17 327 0.0 6.4 0.00 0.00 0.00 90 1015.3
20260906034444 17 329 0.0 6.4 0.00 0.00 0.00 90 1015.2
20260906033444 17 355 0.0 6.4 0.00 0.00 0.00 90 1015.1
20260906032948 17 340 0.0 6.4 0.00 0.00 0.00 89 1015.0
20260906031946 18 23 1.6 8.0 0.00 0.00 0.00 89 1015.0
20260906031444 18 355 1.6 14.5 0.00 0.00 0.00 89 1015.0
20260906030444 18 25 0.0 0.0 0.00 0.00 0.00 89 1015.0
20260906025944 18 10 0.0 0.0 0.00 0.00 0.00 89 1015.0
20260906025443 18 351 0.0 0.0 0.00 0.00 0.00 88 1015.0
20260906024944 18 355 0.0 0.0 0.00 0.00 0.00 88 1015.1
20260906024441 18 22 0.0 0.0 0.00 0.00 0.00 88 1015.0
20260906023936 18 351 0.0 0.0 0.00 0.00 0.00 88 1014.9
20260906023429 18 339 0.0 0.0 0.00 0.00 0.00 87 1014.8
20260906022923 18 5 0.0 0.0 0.00 0.00 0.00 87 1014.9
20260906022418 18 339 0.0 0.0 0.00 0.00 0.00 87 1014.9
20260906021911 18 12 0.0 0.0 0.00 0.00 0.00 86 1014.7
20260906021406 18 15 0.0 0.0 0.00 0.00 0.00 86 1014.8
20260906020859 18 306 0.0 0.0 0.00 0.00 0.00 86 1014.8
20260906020353 18 19 0.0 0.0 0.00 0.00 0.00 86 1014.8
20260906015847 18 345 0.0 0.0 0.00 0.00 0.00 86 1014.8
20260906015341 18 5 0.0 0.0 0.00 0.00 0.00 86 1014.9
20260906014835 18 0 0.0 0.0 0.00 0.00 0.00 86 1014.8
20260906013823 18 340 0.0 0.0 0.00 0.00 0.00 86 1014.7
20260906013317 18 28 0.0 0.0 0.00 0.00 0.00 86 1014.6
20260906012811 18 11 0.0 0.0 0.00 0.00 0.00 87 1014.6
20260906012306 18 329 0.0 0.0 0.00 0.00 0.00 87 1014.6
20260906011800 18 342 0.0 0.0 0.00 0.00 0.00 87 1014.6
20260906010747 18 5 0.0 0.0 0.00 0.00 0.00 87 1014.5
20260906010241 19 348 0.0 0.0 0.00 0.00 0.00 87 1014.5
20260906005735 19 355 0.0 0.0 0.00 0.00 0.00 87 1014.4
20260906004217 19 351 0.0 0.0 0.00 0.00 0.00 86 1014.3
20260906003712 19 351 0.0 0.0 0.00 0.00 0.00 85 1014.3
20260906003205 19 0 0.0 0.0 0.00 0.00 0.00 85 1014.3
20260906002659 19 348 0.0 0.0 0.00 0.00 0.00 85 1014.4
20260906002152 19 355 0.0 1.6 0.00 0.00 0.00 85 1014.4
20260906001647 19 355 0.0 1.6 0.00 0.00 0.00 85 1014.3
20260906001141 19 5 0.0 0.0 0.00 0.00 0.00 84 1014.3
20260906000635 19 5 0.0 4.8 0.00 0.00 0.00 84 1014.2
20260906000128 20 355 0.0 4.8 0.00 0.00 0.00 85 1014.2
20260905235624 20 342 0.0 0.0 0.00 0.00 0.00 85 1014.0
20260905235116 20 342 0.0 0.0 0.00 0.00 0.00 84 1014.0
20260905234105 20 355 0.0 0.0 0.00 0.00 0.00 83 1014.0
20260905233559 20 346 0.0 0.0 0.00 0.00 0.00 83 1014.0
20260905233053 20 346 0.0 0.0 0.00 0.00 0.00 82 1014.1
20260905232041 20 355 0.0 0.0 0.00 0.00 0.00 82 1014.3
20260905231535 20 14 0.0 0.0 0.00 0.00 0.00 81 1014.2
20260905231029 20 11 0.0 0.0 0.00 0.00 0.00 81 1014.2
20260905230523 20 350 0.0 0.0 0.00 0.00 0.00 81 1014.1
20260905230017 20 11 0.0 0.0 0.00 0.00 0.00 80 1014.1
20260905225518 20 18 0.0 0.0 0.00 0.00 0.00 80 1014.0
20260905225017 20 355 0.0 0.0 0.00 0.00 0.00 80 1013.9
20260905224518 20 0 0.0 0.0 0.00 0.00 0.00 80 1013.9
20260905224018 21 25 0.0 3.2 0.00 0.00 0.00 79 1013.8
20260905223517 21 11 0.0 6.4 0.00 0.00 0.00 79 1013.8
20260905223018 21 355 0.0 6.4 0.00 0.00 0.00 78 1013.7
20260905221517 21 16 6.4 14.5 0.00 0.00 0.00 77 1013.6
20260905221017 21 341 3.2 14.5 0.00 0.00 0.00 76 1013.6
20260905220017 21 332 0.0 6.4 0.00 0.00 0.00 77 1013.6
20260905215518 21 9 0.0 0.0 0.00 0.00 0.00 76 1013.6
20260905214518 21 20 0.0 6.4 0.00 0.00 0.00 76 1013.4
20260905214016 21 355 0.0 6.4 0.00 0.00 0.00 75 1013.4
20260905213513 22 0 0.0 0.0 0.00 0.00 0.00 75 1013.3
20260905213007 22 0 0.0 0.0 0.00 0.00 0.00 75 1013.2
20260905212501 22 5 0.0 0.0 0.00 0.00 0.00 77 1013.1
20260905212007 22 21 0.0 0.0 0.00 0.00 0.00 75 1013.1
20260905211449 22 26 0.0 0.0 0.00 0.00 0.00 76 1013.1
20260905210943 22 18 0.0 0.0 0.00 0.00 0.00 78 1013.1
20260905210438 22 5 0.0 0.0 0.00 0.00 0.00 77 1013.1
20260905205931 22 34 0.0 0.0 0.00 0.00 0.00 76 1013.1
20260905205426 22 355 0.0 0.0 0.00 0.00 0.00 75 1013.0
20260905204924 22 5 0.0 0.0 0.00 0.00 0.00 75 1013.1
20260905204423 22 20 0.0 0.0 0.00 0.00 0.00 75 1013.1
20260905203925 22 348 0.0 0.0 0.00 0.00 0.00 75 1013.1
20260905203423 22 9 0.0 0.0 0.00 0.00 0.00 75 1013.1
20260905202923 22 338 0.0 0.0 0.00 0.00 0.00 75 1013.1
20260905202423 22 338 0.0 0.0 0.00 0.00 0.00 74 1013.1
20260905201923 23 338 0.0 6.4 0.00 0.00 0.00 71 1013.2
20260905201423 23 18 0.0 6.4 0.00 0.00 0.00 71 1013.1
20260905200924 23 338 0.0 0.0 0.00 0.00 0.00 72 1013.1
20260905200423 23 348 0.0 0.0 0.00 0.00 0.00 72 1013.1
20260905195923 23 355 0.0 0.0 0.00 0.00 0.00 72 1013.1
20260905195424 23 355 0.0 0.0 0.00 0.00 0.00 74 1013.1
20260905194424 23 355 0.0 1.6 0.00 0.00 0.00 73 1013.0
20260905193922 24 355 0.0 1.6 0.00 0.00 0.00 73 1013.0
20260905193421 23 336 0.0 3.2 0.00 0.00 0.00 73 1013.0
20260905192921 23 201 0.0 3.2 0.00 0.00 0.00 73 1013.0
20260905192420 23 198 0.0 0.0 0.00 0.00 0.00 76 1013.0
20260905191917 23 187 0.0 1.6 0.00 0.00 0.00 73 1013.0
20260905191415 22 267 0.0 1.6 0.00 0.00 0.00 75 1013.0
20260905190916 22 269 0.0 0.0 0.00 0.00 0.00 75 1013.0
20260905190415 22 282 0.0 1.6 0.00 0.00 0.00 78 1013.1